Tracking 29493 objects as of 8-Sep-2024
HD Live streaming from Space Station
objects crossing your sky now

FENGYUN 1C DEB

Track FENGYUN 1C DEB now!
10-day predictions


NORAD ID: 31955
Int'l Code: 1999-025CNG
Perigee: 691.6 km
Apogee: 768.8 km
Inclination: 99.3 °
Period: 99.3 minutes
Semi major axis: 7101 km
RCS: 0.0141 m2 (small)
Launch date: May 10, 1999
Source: People's Republic of China (PRC)
Launch site: Taiyaun Space Center, China (TSC)

Note: This is SATELLITE DEBRIS
Your satellite tracking list
Your tracking list is empty




NASA's NSSDC Master Catalog

Two Line Element Set (TLE):
1 31955U 99025CNG 24252.46107149  .00031901  00000-0  79239-2 0  9991
2 31955  99.3136  68.9449 0054367 126.7071 264.0769 14.50798473899609
Source of the keplerian elements: AFSPC